Flag Weather past 2 weeks in Emmen, Lucerne, Switzerland

Now
45 °F

Quite cool.


Feels Like: 45 °F
Forecast: 42 / 58 °F
Wind: 1 mph from Southeast

Location: Giswil

Current Time: Nov 24, 2014 at 11:47:02 PM

Latest Report: Nov 24, 2014 at 11:00 PM


Visibility: N/A

Pressure: 30.23 "Hg

Humidity: 100%

Dew point: 45 °F

Location of EmmenLocation

Historic Weather in Emmen — Graph

°F

Emmen temperature yesterday

Maximum temperature yesterday: 42 °F (at 3:00 PM)
Minimum temperature yesterday: 35 °F (at 8:00 AM)
Average temperature yesterday: 39 °F

Past Weeks' High & Low Weather Summary

 TemperatureHumidityPressure
High57 °F (Nov 24, 3:00 PM)100% (Nov 9, 9:00 PM)30.33 "Hg (Nov 9, 9:00 PM)
Low30 °F (Nov 20, 2:00 AM)69% (Nov 19, 2:00 PM)29.59 "Hg (Nov 15, 6:00 PM)
Average42 °F97%29.96 "Hg
* Reported Nov 9 9:00 PM — Nov 24 9:00 PM, Emmen, Weather by CustomWeather, © 2014

Note: Actual official high and low records may vary slightly from our data, if they occured in-between our weather recording intervals... More about our weather records

Advertising

Emmen weather history for previous 24 hours

 ConditionsComfort  
Time TempWeatherWind HumidityBarometerVisibility
9:00 PM
Nov 24
46 °FCool.1 mph100%30.23 "HgN/A
8:00 PM47 °FCool.1 mph100%30.22 "HgN/A
7:00 PM47 °FCool.2 mph100%30.21 "HgN/A
6:00 PM47 °FCool.1 mph100%30.20 "HgN/A
5:00 PM48 °FCool.1 mph100%30.22 "HgN/A
4:00 PM52 °FCool.2 mph95%30.21 "HgN/A
3:00 PM57 °FCool.1 mph78%30.19 "HgN/A
2:00 PM56 °FCool.1 mph81%30.20 "HgN/A
1:00 PM54 °FCool.1 mph84%30.21 "HgN/A
12:00 PM51 °FCool.1 mph93%30.23 "HgN/A
11:00 AM48 °FCool.2 mph100%30.24 "HgN/A
10:00 AM45 °FCool.1 mph100%30.22 "HgN/A
9:00 AM42 °FQuite cool.1 mph100%30.23 "HgN/A
8:00 AM42 °FQuite cool.2 mph100%30.23 "HgN/A
7:00 AM44 °FQuite cool.2 mph100%30.23 "HgN/A
6:00 AM44 °FQuite cool.2 mph100%30.24 "HgN/A
5:00 AM43 °FQuite cool.3 mph100%30.22 "HgN/A
4:00 AM42 °FQuite cool.2 mph100%30.22 "HgN/A
3:00 AM41 °FQuite cool.3 mph100%30.24 "HgN/A
2:00 AM43 °FQuite cool.2 mph100%30.24 "HgN/A
1:00 AM42 °FQuite cool.3 mph100%30.22 "HgN/A
12:00 AM42 °FQuite cool.3 mph100%30.23 "HgN/A
11:00 PM
Nov 23
42 °FQuite cool.2 mph100%30.23 "HgN/A
Weather by CustomWeather, © 2014

See weather overviewHow to use our weather pages